Overview Statistics Trail Chart Weather Telemetry Raw packets
 

This is the latest recevied weather packets stored in our database for station/object K1NOT-WX. If no packets are shown the sender has not sent any weather packets the latest 10 day(s).

<< 23 24 25 26 27 28 29 >>
Time Temp. Humidity Pressure Rain* Wind** Luminosity Snow
1777212732 10° C 65% 1000.7 hPa 0 mm - - -
1777211832 7.22° C 74% 1000.7 hPa 0 mm - - -
1777210932 6.11° C 84% 1000.7 hPa 0 mm - - -
1777210032 5.56° C 78% 1000.3 hPa 0 mm - - -
1777209132 4.44° C 81% 1000.3 hPa 0 mm - - -
1777208232 5.56° C 75% 1000.3 hPa 0 mm - - -
1777207332 4.44° C 79% 1000.3 hPa 0 mm - - -
1777206432 4.44° C 78% 1000.7 hPa 0 mm - - -
1777205532 4.44° C 78% 1000.3 hPa 0 mm - - -
1777204632 5° C 77% 1000 hPa 0 mm - - -
1777203732 6.67° C 84% 1000.3 hPa 0 mm - - -
1777202832 7.22° C 72% 1000 hPa 0 mm - - -
1777201932 6.11° C 68% 1000.3 hPa 0 mm - - -
1777201032 5.56° C 72% 1000 hPa 0 mm - - -
1777200132 6.11° C 68% 1000 hPa 0 mm - - -
1777199232 6.11° C 65% 1000.3 hPa 0 mm - - -
1777198332 6.67° C 63% 1000 hPa 0 mm - - -
1777197432 6.67° C 64% 1000.3 hPa 0 mm - - -
1777196532 6.67° C 66% 1000.3 hPa 0 mm - - -
1777195632 6.67° C 63% 1000.3 hPa 0 mm - - -
1777194732 7.22° C 61% 1000 hPa 0 mm - - -
1777193832 8.33° C 58% 1000 hPa 0 mm - - -
1777192932 8.33° C 56% 1000.7 hPa 0 mm - - -
1777192032 8.33° C 56% 1000.3 hPa 0 mm - - -
1777191132 8.89° C 55% 1000.7 hPa 0 mm - - -

* Rain latest hour (hover to see other rain measurements)
** Current wind speed in m/s (hover to see current wind gust speed)